Showing default

BULGARIASAT-1, 42801

Orbit data source: Space-Track

BULGARIASAT-1, 42801 is a payload satellite owned by Bulgaria Sat (BG) in GEO that was launched on Fri, 23 Jun 2017 UTC via an FALCON 9 launch vehicle from the Air Force Eastern Test Range (AFETR). Payloads include a variety of satellites, spacecraft, and rockets equipped with specific instruments for various scientific and technological missions. These include communications satellites like Starlink; space stations such as the ISS; scientific satellites like the Hubble; Earth observation satellites from companies like Planet Labs, Umbra, and HawkEye 360; GPS; miniature CubeSats for education and research; and military/defense satellites.

Not visible in the next 10 days
BULGARIASAT-1 details
Identifier
42801, 2017-038A
Orbit
GEO
Last TLE update23 hours ago
Origin
Flag of BGBulgaria Sat (BG / BGR)
ManufacturerSS/Loral (MDA)
MissionOperational Commercial Communications
Bus & MotorSSL-1300, R-4D-15-300
Mass~4,000 kg wet, ~3,000 kg dry
Launch date (UTC)
2017-06-23 (7 years ago)
Launch vehicle
FALCON 9
Launch site
Air Force Eastern Test Range (AFETR)
Object type
Payload
Rocket body
Debris
Shape & HBRBox + 2 Pan, 31 m
Radar Cross Section40.765 m², Large (>1 m²)

Expand to show TLE details & history

TLE from 23 hours ago
0 BULGARIASAT-1
1 42801U 17038A   24339.16146260  .00000034  00000-0  00000-0 0  9998
2 42801   0.0614  93.3477 0002823 165.3721 234.7996  1.00273221 27222
Epoch: 2024-12-04T03:52Z
Definitive object data (Epoch: 2024-12-04T03:52:30.368Z)
Latitude0.04599°
Longitude1.87988°
Altitude35,792.574 km
Speed3.074 km/s
True Right ascension08h 53m 52s
True Declination0° 02' 45"
Sunlit
Object was in daylight at TLE epoch
Visualization TLE readout
Latitude0.04158°
Longitude-12.59745°
Altitude35,794.747 km
Speed3.074 km/s
Apparent Right ascension08h 20m 29s
Apparent Declination-5° 15' 48"
Sunlit
Object is in daylight
Visualization observer readout
Local Sidereal Time00:47:54
Azimuth78.832° E
Elevation-21.041°
Doppler factor1
Orbital elements
Apogee altitude35,799.166 km
Perigee altitude35,775.359 km
Semi-major axis42,165.4 km
Eccentricity0.0002823
Inclination0.0614°
RAAN93.3477°
Arg. of periapsis165.3721°
True anomaly234.77317°
Mean anomaly234.7996°
Eccentric anomaly234.78639°
Mean motion0.25067 °/min
BSTARUnknown
Orbital period1436.13 mins
Loading historical data...
42801 neighbors
Authenticating...
Loading maneuver chart data...
Loading historical data...
Loading historical data...
Loading historical data...
Loading historical data...
Loading historical data...
Loading historical data...
Loading historical data...
Other satellites on launch #38 in the year 2017 (2017-06-23 UTC)

BULGARIASAT-1 Visibility forecast

Observer location: undefined°, undefined

BULGARIASAT-1 is not visible in the next 10 days
Span
Click to sort rows by Start time (UTC) header in descending order
Start Az.
Max El. time (UTC)
Max El. Az.
Max El.
End time (UTC)
End Az.
|